"Pseudo-MPEC" for P12gitx

Created 2025 Oct 16 10:35:14 UT using Find_Orb

Click here for an explanation of pseudo-MPECs

 
 Astrometry: 
     P12gitx* C2025 10 04.59960006 26 11.520-14 19 01.04   ~A4H5 21.30wXNEOCPF51
     P12gitx  C2025 10 04.60888906 26 12.176-14 19 03.14   ~A4H5 21.56wXNEOCPF51
     P12gitx  C2025 10 04.61818906 26 12.830-14 19 05.24   ~A4H5 21.30wXNEOCPF51
     P12gitx  C2025 10 04.62750706 26 13.491-14 19 07.33   ~A4H5 21.39wXNEOCPF51
     P12gitx  C2025 10 05.47511606 27 14.609-14 22 14.67   ~A5Bo 21.2 GWNEOCPH01
     P12gitx  C2025 10 05.47982706 27 14.933-14 22 15.87   ~A5Bo 20.9 GWNEOCPH01
     P12gitx  C2025 10 05.62697206 27 25.370-14 22 46.67   ~A5IK 21.18GVNEOCPF51
     P12gitx  C2025 10 05.62779306 27 25.432-14 22 46.87   ~A5IK 21.08GVNEOCPF51
     P12gitx |C2025 10 12.31975006 34 34.410-14 45 23.50   ~AC8Z 21.5 GVNEOCP807
     P12gitx |C2025 10 12.32711006 34 34.770-14 45 24.60   ~AC8Z 21.3 GVNEOCP807
     P12gitx |C2025 10 12.33447006 34 35.200-14 45 26.20   ~AC8Z 20.9 GVNEOCP807
     P12gitx |C2025 10 13.31742906 35 30.220-14 48 26.90   ~AD8o 21.2 GVNEOCP807
     P12gitx |C2025 10 13.32662006 35 30.690-14 48 28.00   ~AD8o 21.6 GVNEOCP807
     P12gitx |C2025 10 13.33582006 35 31.190-14 48 30.40   ~AD8o 20.8 GVNEOCP807
     P12gitx |C2025 10 14.29506006 36 22.870-14 51 21.30   ~AE85 20.9 GVNEOCP807
     P12gitx |C2025 10 14.30426606 36 23.330-14 51 23.20   ~AE85 21.0 GVNEOCP807
     P12gitx |C2025 10 14.31347006 36 23.810-14 51 24.90   ~AE85 21.0 GVNEOCP807
     P12gitx |C2025 10 16.30577006 38 04.400-14 57 00.70   ~AG8K 20.8 GVNEOCP807
     P12gitx |C2025 10 16.31865006 38 05.030-14 57 02.70   ~AG8K 20.8 GVNEOCP807
     P12gitx |C2025 10 16.32049006 38 05.080-14 57 03.30   ~AG8K 21.0 GVNEOCP807

Station data:
(807) Cerro Tololo Observatory, La Serena  (S30.169133 W70.805900)  Chile.
   Observer R. Holmes. 0.61-m f/6.5 astrograph + CCD.
(F51) Pan-STARRS 1, Haleakala  (N20.707234 W156.255910)  US/Hawaii.
   Observers J. Herman, T. Lowe, P. Minguez, A. Schultz, I. Smith. Measurers
   K. Chambers, T. de Boer, J. Fairlamb, H. Gao, M. Huber, C.-C. Lin, E.
   Magnier, Y. Ramanjooloo, R. Wainscoat, R. Weryk. 1.8-m Ritchey-Chrétien +
   CCD.
(H01) Magdalena Ridge Observatory, Socorro  (N33.984833 W107.189333)  US/New
   Mexico.  Observers W. H. Ryan, E. V. Ryan. Measurer W. H. Ryan. 2.4-m
   f/8.9 reflector + CCD.

Orbital elements:  P12gitx
   Perihelion 2025 Jul 29.896586 +/- 0.704 TT = 21:31:05.0 (JD 2460886.396586)
Epoch 2025 Oct 16.0 TT = JDT 2460964.5   Earth MOID: 0.8041      AutoNEOCP
M  17.104250151 +/- 1.0             (J2000 ecliptic)
n   0.218994909 +/- 0.011           Peri.  256.136438 +/- 0.19
a   2.725921649 +/- 0.0911          Node   118.711386 +/- 0.43
e   0.41763487 +/- 0.0171           Incl.   31.276164 +/- 0.034
P   4.50060                H 18.16  G  0.15   U  9.7
q 1.587481701 +/- 0.00647    Q 3.864361598 +/- 0.176
From 20 observations 2025 Oct. 4-16; mean residual 0".20
Residuals in arcseconds: 
251004 F51  .03-  .01-    251005 F51  .03+  .04+    251014 807  .15-  .06+    
251004 F51  .01-  .02-    251012 807  .47+  .35-    251014 807  .25-  .17-    
251004 F51  .02-  .03-    251012 807  .17-  .04-    251014 807  .05-  .21-    
251004 F51  .06+  .03-    251012 807  .22+  .22-    251016 807  .13-  .01-    
251005 H01  .06+  .07+    251013 807  .04-  .14+    251016 807  .40+  .14+    
251005 H01  .05+  .09-    251013 807  .25-  .76+    251016 807  .10-  .15-    
251005 F51  .05-  .06+    251013 807  .01-  .07+    

Ephemerides (geocentric):
Date (UTC) HH   RA             Dec           delta  r     elong  mag " sig PA
---- --------  ------------   ------------  ------ ------ -----  --- --------
2025 10 16 11  06 38 11.505   -14 57 27.38  1.2656 1.7273  98.8 21.3 .227  60
2025 10 16 12  06 38 13.499   -14 57 34.07  1.2654 1.7274  98.9 21.3 .233  61
2025 10 16 13  06 38 15.489   -14 57 40.75  1.2652 1.7275  98.9 21.3 .238  61
2025 10 16 14  06 38 17.476   -14 57 47.41  1.2650 1.7277  98.9 21.3 .244  61
2025 10 16 15  06 38 19.458   -14 57 54.06  1.2649 1.7278  98.9 21.3 .250  61
2025 10 16 16  06 38 21.437   -14 58 00.70  1.2647 1.7279  99.0 21.3 .256  62
2025 10 16 17  06 38 23.412   -14 58 07.32  1.2645 1.7281  99.0 21.3 .262  62
2025 10 16 18  06 38 25.382   -14 58 13.94  1.2643 1.7282  99.0 21.3 .268  62
2025 10 16 19  06 38 27.349   -14 58 20.54  1.2641 1.7284  99.0 21.3 .274  62
2025 10 16 20  06 38 29.312   -14 58 27.12  1.2639 1.7285  99.1 21.3 .280  62
2025 10 16 21  06 38 31.271   -14 58 33.70  1.2637 1.7286  99.1 21.3 .287  63
2025 10 16 22  06 38 33.226   -14 58 40.26  1.2635 1.7288  99.1 21.3 .293  63
2025 10 16 23  06 38 35.177   -14 58 46.80  1.2633 1.7289  99.1 21.3 .300  63
2025 10 17 00  06 38 37.124   -14 58 53.34  1.2631 1.7290  99.2 21.3 .306  63
2025 10 17 01  06 38 39.067   -14 58 59.86  1.2629 1.7292  99.2 21.3 .313  64
2025 10 17 02  06 38 41.007   -14 59 06.37  1.2627 1.7293  99.2 21.3 .320  64
2025 10 17 03  06 38 42.942   -14 59 12.87  1.2625 1.7295  99.2 21.3 .326  64
2025 10 17 04  06 38 44.873   -14 59 19.35  1.2624 1.7296  99.3 21.3 .333  64
2025 10 17 05  06 38 46.801   -14 59 25.82  1.2622 1.7297  99.3 21.3 .340  65
2025 10 17 06  06 38 48.724   -14 59 32.27  1.2620 1.7299  99.3 21.3 .347  65
2025 10 17 07  06 38 50.643   -14 59 38.72  1.2618 1.7300  99.3 21.3 .355  65
2025 10 17 08  06 38 52.559   -14 59 45.15  1.2616 1.7302  99.4 21.3 .362  65
2025 10 17 09  06 38 54.470   -14 59 51.56  1.2614 1.7303  99.4 21.3 .369  66
2025 10 17 10  06 38 56.378   -14 59 57.97  1.2612 1.7304  99.4 21.3 .377  66
2025 10 17 11  06 38 58.282   -15 00 04.36  1.2610 1.7306  99.4 21.3 .384  66
2025 10 17 12  06 39 00.181   -15 00 10.73  1.2608 1.7307  99.4 21.3 .392  66
2025 10 17 13  06 39 02.077   -15 00 17.10  1.2606 1.7308  99.5 21.3 .400  67
2025 10 17 14  06 39 03.969   -15 00 23.45  1.2604 1.7310  99.5 21.3 .408  67
2025 10 17 15  06 39 05.856   -15 00 29.78  1.2602 1.7311  99.5 21.3 .416  67
2025 10 17 16  06 39 07.740   -15 00 36.11  1.2600 1.7313  99.5 21.3 .424  67
2025 10 17 17  06 39 09.620   -15 00 42.41  1.2598 1.7314  99.6 21.3 .432  68
2025 10 17 18  06 39 11.496   -15 00 48.71  1.2596 1.7315  99.6 21.3 .440  68
2025 10 17 19  06 39 13.368   -15 00 54.99  1.2595 1.7317  99.6 21.3 .448  68
2025 10 17 20  06 39 15.235   -15 01 01.26  1.2593 1.7318  99.6 21.3 .457  68
2025 10 17 21  06 39 17.099   -15 01 07.52  1.2591 1.7320  99.7 21.3 .465  68
2025 10 17 22  06 39 18.959   -15 01 13.76  1.2589 1.7321  99.7 21.3 .474  69
2025 10 17 23  06 39 20.815   -15 01 19.98  1.2587 1.7322  99.7 21.3 .483  69
2025 10 18 00  06 39 22.667   -15 01 26.20  1.2585 1.7324  99.7 21.3 .492  69
2025 10 18 01  06 39 24.515   -15 01 32.40  1.2583 1.7325  99.8 21.3 .500  69
2025 10 18 02  06 39 26.359   -15 01 38.58  1.2581 1.7327  99.8 21.3 .510  70
2025 10 18 03  06 39 28.199   -15 01 44.76  1.2579 1.7328  99.8 21.3 .519  70
2025 10 18 04  06 39 30.035   -15 01 50.91  1.2577 1.7329  99.8 21.3 .528  70
2025 10 18 05  06 39 31.867   -15 01 57.06  1.2575 1.7331  99.9 21.3 .537  70
2025 10 18 06  06 39 33.695   -15 02 03.19  1.2573 1.7332  99.9 21.3 .547  70
2025 10 18 07  06 39 35.519   -15 02 09.31  1.2571 1.7334  99.9 21.3 .556  71
2025 10 18 08  06 39 37.339   -15 02 15.41  1.2569 1.7335  99.9 21.3 .566  71
2025 10 18 09  06 39 39.155   -15 02 21.50  1.2567 1.7336 100.0 21.3 .576  71
2025 10 18 10  06 39 40.967   -15 02 27.57  1.2565 1.7338 100.0 21.3 .586  71